Location: Mesa
(33.4220°N, 111.8220°W)
Time: 09:58:05
(UTC-07:00)

N. Korean satellite - Pass Details

Date: 25 November 2019
Orbit: 455 x 507 km, 97.2° (Epoch: 13 December)

Event Time Altitude Azimuth Distance (km) Brightness Sun altitude
Rises 18:06:58 0° 188° (S) 2,562 10.6 -9.8°
Reaches altitude 10° 18:09:11 10° 199° (SSW) 1,692 9.8 -10.3°
Maximum altitude 18:12:27 31° 263° (W) 894 8.7 -10.9°
Drops below altitude 10° 18:15:47 10° 327° (NNW) 1,719 9.5 -11.6°
Sets 18:18:03 0° 337° (NNW) 2,611 10.3 -12.0°
